{"data":{"norad_id":67591,"epoch":"2026-09-19T10:49:06.497760Z","epoch_age_seconds":159590,"freshness":"FRESH","line1":"1 67591U 26018C   26262.45076965  .00020390  00000+0  63215-3 0  9998","line2":"2 67591  97.2868 325.8344 0000673  69.8489 290.2826 15.33447556 37023","mean_motion":15.33447556,"eccentricity":6.73e-5,"inclination_deg":97.2868,"raan_deg":325.8344,"arg_perigee_deg":69.8489,"mean_anomaly_deg":290.2826,"bstar":0.00063215,"rev_number":3702,"period_min":93.906048130935,"perigee_km":465.07499046706,"apogee_km":465.99614879493,"semimajor_km":6843.672569631,"source":"CELESTRAK","updated_at":"2026-09-20T09:00:43.601273Z"}}